[[{"header":{"parameterUnit":"m.s-1","parameterCategory":1,"la1":30.2991,"la2":30.254,"lo1":-89.0895,"lo2":-89.0444,"dx":0.0017,"dy":0.0017,"nx":28,"ny":28,"refTime":"2022-11-17T15:00:00:Z","depth":0,"parameterNumber":2,"parameterNumberName":"U-component_of_WINDS"},"data":[0,0,0,0,0,0,0,0,0,0,0,0,0,0,0,0,0,0,0,0,0,0,0,0,0,0,0,0,0,0,0,0,0,0,0,0,0,0,0,0,0,0,0,0,0,0,0,0,0,0,0,0,0,0,0,0,0,0,-4.1982,-4.1982,0,-4.2039,-4.204,-4.2041,-4.1864,-4.1859,-4.1854,-4.1849,-4.1909,-4.1915,-4.1922,0,0,0,0,0,0,0,0,0,0,0,0,0,-4.1718,-4.1724,-4.1981,-4.1982,-4.1983,-4.2039,-4.204,-4.2041,-4.1865,-4.1859,-4.1852,-4.1846,-4.1907,-4.1915,-4.1922,0,0,0,0,0,0,0,0,0,0,0,0,0,-4.181,-4.1725,-4.1981,-4.1902,-4.1896,-4.2039,-4.204,-4.2041,-4.1867,-4.1859,-4.1851,-4.1843,-4.1904,-4.1914,-4.1924,-4.2147,0,0,-4.1954,-4.1958,0,0,0,0,0,0,0,0,-4.1805,-4.182,-4.1913,-4.1908,-4.1901,-4.1936,-4.1969,-4.2077,-4.1869,-4.1878,-4.1848,-4.1839,-4.1925,-4.1932,-4.1961,-4.2149,-4.2152,-4.1955,-4.1961,-4.1965,-4.1968,0,0,0,0,0,0,0,-4.1799,-4.1816,-4.2004,-4.1915,-4.1907,-4.1863,-4.1867,-4.1989,-4.1946,-4.1876,-4.1864,-4.1873,-4.192,-4.1952,-4.1961,-4.2153,-4.1955,-4.1963,-4.197,-4.1973,-4.2525,-4.2533,0,0,0,0,0,0,-4.1803,-4.1812,-4.2002,-4.2006,-4.1832,-4.1875,-4.1879,-4.1933,-4.1944,-4.1938,-4.188,-4.1865,-4.1939,-4.195,-4.1963,-4.2223,-4.1965,-4.1974,-4.198,-4.2516,-4.2527,-4.2536,0,0,0,0,0,0,-4.1798,-4.1821,-4.2,-4.1906,-4.1925,-4.1888,-4.195,-4.1939,-4.197,-4.1947,-4.1938,-4.1921,-4.1933,-4.1949,-4.2102,-4.2223,-4.1979,-4.1988,-4.2506,-4.2519,-4.2531,-4.2748,0,0,0,0,0,0,-4.1791,-4.1821,-4.1906,-4.1909,-4.1931,-4.214,-4.1957,-4.1946,-4.1988,-4.1969,-4.1983,-4.1977,-4.1928,-4.2088,-4.2112,-4.2232,-4.1996,-4.2495,-4.2512,-4.2527,-4.273,-4.2766,-4.2798,0,0,0,0,0,-4.1782,-4.1965,-4.1911,-4.1935,-4.2036,-4.2147,-4.2159,-4.2098,-4.1999,-4.2083,-4.2067,-4.1977,-4.2206,-4.2105,-4.213,-4.2256,-4.2487,-4.2507,-4.2526,-4.2714,-4.2759,-4.2797,0,0,0,0,0,0,-4.1978,-4.1964,-4.1904,-4.2093,-4.2122,-4.2117,-4.2222,-4.2148,-4.2207,-4.2186,-4.2108,-4.2113,-4.228,-4.2283,-4.2171,-4.2471,-4.2329,-4.2355,-4.2463,-4.2506,-4.254,-4.2536,-4.2004,0,0,0,0,0,-4.2042,-4.2134,-4.2116,-4.2285,-4.2303,-4.2261,-4.2306,-4.2257,-4.2284,-4.2296,-4.2291,-4.2321,-4.2399,-4.2452,-4.2523,-4.2728,-4.2728,-4.2827,-4.2861,-4.2889,-4.2913,-4.302,-4.3063,-4.26,-4.26,-4.26,0,0,-4.2178,-4.2182,-4.2244,-4.2324,-4.2341,-4.2437,-4.2272,-4.2381,-4.245,-4.2312,-4.2456,-4.2454,-4.2482,-4.2662,-4.274,-4.2669,-4.304,-4.2914,-4.2937,-4.2945,-4.3045,-4.3088,-4.3127,-4.2614,-4.2611,-4.2609,0,0,-4.2474,-4.2486,-4.2627,-4.2647,-4.2674,-4.2644,-4.2678,-4.2684,-4.2677,-4.282,-4.2717,-4.2799,-4.2936,-4.2959,-4.2989,-4.3292,-4.321,-4.3317,-4.3497,-4.3602,-4.3638,-4.367,-4.3778,-4.3817,-4.334,-4.3341,-4.3341,0,-4.2639,-4.2779,-4.2709,-4.2824,-4.2862,-4.274,-4.2882,-4.2904,-4.2954,-4.2983,-4.2901,-4.3069,-4.3079,-4.3262,-4.3336,-4.3365,-4.34,-4.3316,-4.3639,-4.367,-4.3699,-4.38,-4.3841,-4.3353,-4.3352,-4.3351,-4.3349,0,-4.298,-4.3079,-4.319,-4.324,-4.3289,-4.3418,-4.3367,-4.3426,-4.3371,-4.335,-4.3496,-4.3504,-4.3573,-4.3612,-4.3561,-4.3788,-4.3743,-4.3652,-4.3508,-4.3757,-4.3851,-4.3889,-4.3372,-4.3367,-4.3363,-4.336,0,0,-4.3403,-4.3411,-4.3453,-4.3473,-4.3493,-4.3568,-4.3689,-4.3756,-4.3808,-4.3846,-4.3945,-4.4063,-4.3978,-4.4012,-4.3962,-4.4054,-4.4292,-4.3951,-4.3951,-4.4014,-4.4542,-4.461,-4.4657,-4.4238,-4.4245,-4.425,-4.4539,0,-4.3694,-4.3902,-4.3842,-4.4051,-4.4141,-4.4025,-4.413,-4.4154,-4.4137,-4.4209,-4.4189,-4.4274,-4.4156,-4.4176,-4.4262,-4.4245,-4.4397,-4.4223,-4.4329,-4.4334,-4.4327,-4.4706,-4.4779,-4.5051,-4.4576,-4.4582,-4.4586,0,-4.4061,-4.4112,-4.4331,-4.4334,-4.4369,-4.4466,-4.4521,-4.4592,-4.4616,-4.4596,-4.4634,-4.4564,-4.4682,-4.4537,-4.4699,-4.4582,-4.4622,-4.462,-4.4629,-4.4637,-4.4476,-4.4724,-4.5137,-4.5178,-4.4643,-4.4639,-4.4635,0,-4.4347,-4.447,-4.4616,-4.4637,-4.4645,-4.4715,-4.4721,-4.4737,-4.478,-4.4829,-4.4856,-4.4918,-4.4953,-4.5002,-4.495,-4.4849,-4.512,-4.497,-4.5106,-4.5108,-4.5169,-4.5166,-4.5595,-4.5195,-4.5195,-4.5194,-4.5193,0,-4.4679,-4.4817,-4.4744,-4.4835,-4.4985,-4.4913,-4.5064,-4.5057,-4.5072,-4.5157,-4.5061,-4.5143,-4.5069,-4.5145,-4.5105,-4.5245,-4.5261,-4.5248,-4.5236,-4.5257,-4.5259,-4.5282,-4.5262,-4.5205,-4.5202,-4.52,-4.5198,0,-4.5024,-4.4981,-4.5132,-4.5126,-4.5128,-4.5239,-4.5234,-4.5316,-4.5291,-4.5401,-4.5422,-4.5383,-4.5467,-4.5419,-4.5506,-4.5479,-4.566,-4.5622,-4.5652,-4.5642,-4.5781,-4.5768,-4.6239,-4.6297,-4.5861,-4.5865,-4.5869,0,-4.5238,-4.5341,-4.5346,-4.5396,-4.5409,-4.5492,-4.5535,-4.5468,-4.5517,-4.5551,-4.5629,-4.5704,-4.5761,-4.59,-4.5879,-4.5944,-4.5907,-4.6067,-4.5916,-4.5934,-4.5909,-4.5903,-4.5913,-4.6098,-4.6103,-4.6107,-4.6111,0,-4.5623,-4.5596,-4.5663,-4.5722,-4.5777,-4.582,-4.5856,-4.5903,-4.5835,-4.5896,-4.598,-4.6024,-4.6111,-4.6187,-4.6242,-4.6247,-4.6169,-4.6158,-4.6193,-4.6216,-4.6229,-4.6223,-4.5735,-4.6148,-4.6144,-4.6142,-4.614,-4.6138,-4.5909,-4.5994,-4.6011,-4.6088,-4.6107,-4.6142,-4.6218,-4.6202,-4.6271,-4.6337,-4.6292,-4.6392,-4.641,-4.6476,-4.6491,-4.6567,-4.6503,-4.6554,-4.6566,-4.658,-4.6599,-4.6217,-4.6577,-4.6576,-4.6575,-4.6574,-4.6573,0,-4.6288,-4.6292,-4.6364,-4.6415,-4.6476,-4.6395,-4.643,-4.6485,-4.6574,-4.6598,-4.6655,-4.6751,-4.6823,-4.6808,-4.6873,-4.6936,-4.6902,-4.6956,-4.695,-4.6953,-4.6653,-4.6616,-4.6983,-4.6983,-4.6983,-4.6982,-4.6982,-4.6982,-4.6492,-4.6632,-4.6608,-4.6756,-4.6758,-4.6855,-4.6881,-4.6912,-4.6931,-4.7042,-4.7102,-4.709,-4.7098,-4.7162,-4.7225,-4.7218,-4.7246,-4.7314,-4.7294,-4.7014,-4.6974,-4.6935,-4.69,-4.732,-4.7321,-4.7587,-4.7589,-4.7591]},{"header":{"parameterUnit":"m.s-1","parameterCategory":1,"la1":30.2991,"la2":30.254,"lo1":-89.0895,"lo2":-89.0444,"dx":0.0017,"dy":0.0017,"nx":28,"ny":28,"refTime":"2022-11-17T15:00:00:Z","depth":0,"parameterNumber":3,"parameterNumberName":"V-component_of_WINDS"},"data":[0,0,0,0,0,0,0,0,0,0,0,0,0,0,0,0,0,0,0,0,0,0,0,0,0,0,0,0,0,0,0,0,0,0,0,0,0,0,0,0,0,0,0,0,0,0,0,0,0,0,0,0,0,0,0,0,0,0,-5.3811,-5.3812,0,-5.3877,-5.3878,-5.3879,-5.3773,-5.377,-5.3766,-5.3763,-5.3827,-5.3832,-5.3837,0,0,0,0,0,0,0,0,0,0,0,0,0,-5.3589,-5.3594,-5.3811,-5.3812,-5.3813,-5.3877,-5.3878,-5.3879,-5.3774,-5.377,-5.3765,-5.3761,-5.3825,-5.3831,-5.3837,0,0,0,0,0,0,0,0,0,0,0,0,0,-5.3673,-5.3595,-5.3811,-5.3768,-5.3765,-5.3877,-5.3878,-5.3879,-5.3775,-5.377,-5.3764,-5.3759,-5.3823,-5.383,-5.3838,-5.3993,0,0,-5.3861,-5.3864,0,0,0,0,0,0,0,0,-5.3669,-5.3682,-5.3774,-5.3772,-5.3768,-5.3812,-5.3823,-5.3917,-5.3776,-5.3771,-5.3763,-5.3756,-5.3826,-5.3833,-5.3857,-5.3996,-5.3999,-5.3862,-5.3866,-5.387,-5.3872,0,0,0,0,0,0,0,-5.3663,-5.3678,-5.3837,-5.3775,-5.3772,-5.3744,-5.375,-5.384,-5.3828,-5.3771,-5.3764,-5.3773,-5.3823,-5.385,-5.3858,-5.4,-5.3862,-5.3868,-5.3873,-5.3876,-5.4266,-5.4272,0,0,0,0,0,0,-5.3663,-5.3674,-5.3835,-5.3839,-5.3704,-5.3753,-5.3759,-5.3803,-5.3827,-5.3825,-5.3778,-5.3768,-5.384,-5.3849,-5.3859,-5.4041,-5.387,-5.3877,-5.3881,-5.426,-5.4267,-5.4274,0,0,0,0,0,0,-5.3659,-5.3678,-5.3832,-5.3755,-5.3772,-5.3762,-5.3812,-5.3807,-5.3834,-5.3832,-5.3828,-5.3808,-5.3836,-5.3849,-5.396,-5.4042,-5.388,-5.3887,-5.4254,-5.4263,-5.4271,-5.4406,0,0,0,0,0,0,-5.3653,-5.3678,-5.3738,-5.3757,-5.3777,-5.3934,-5.3817,-5.3812,-5.3848,-5.3836,-5.3859,-5.3858,-5.3832,-5.3949,-5.3968,-5.4049,-5.3893,-5.4246,-5.4258,-5.4268,-5.4394,-5.4419,-5.4439,0,0,0,0,0,-5.3645,-5.3773,-5.3742,-5.3762,-5.3852,-5.3939,-5.395,-5.392,-5.3855,-5.3914,-5.3912,-5.3857,-5.403,-5.3962,-5.3981,-5.4066,-5.4241,-5.4254,-5.4267,-5.4384,-5.4414,-5.4439,0,0,0,0,0,0,-5.3764,-5.3775,-5.374,-5.3879,-5.3909,-5.3921,-5.3996,-5.3952,-5.4001,-5.3987,-5.3946,-5.3952,-5.4072,-5.408,-5.4004,-5.4216,-5.4124,-5.4142,-5.4207,-5.4235,-5.4257,-5.4252,-5.3899,0,0,0,0,0,-5.3806,-5.3877,-5.3883,-5.4004,-5.4021,-5.4006,-5.4043,-5.4017,-5.4046,-5.4058,-5.4064,-5.4093,-5.4154,-5.4195,-5.425,-5.4395,-5.4397,-5.4463,-5.4485,-5.4504,-5.4519,-5.4594,-5.4622,-5.4317,-5.4317,-5.4316,0,0,-5.3894,-5.3909,-5.3956,-5.4028,-5.4049,-5.4121,-5.4018,-5.4099,-5.4152,-5.407,-5.4175,-5.4181,-5.421,-5.4339,-5.4395,-5.4349,-5.4604,-5.452,-5.4535,-5.454,-5.461,-5.4639,-5.4665,-5.4325,-5.4324,-5.4322,0,0,-5.4091,-5.4111,-5.4213,-5.4235,-5.4268,-5.4256,-5.4281,-5.43,-5.4301,-5.4406,-5.4345,-5.4406,-5.4512,-5.4535,-5.4561,-5.4764,-5.4714,-5.4783,-5.49,-5.4973,-5.4997,-5.5018,-5.5089,-5.5115,-5.4799,-5.4799,-5.48,0,-5.4196,-5.4305,-5.4271,-5.4357,-5.4389,-5.4318,-5.442,-5.4443,-5.4491,-5.4514,-5.4462,-5.4592,-5.4607,-5.4738,-5.4788,-5.4812,-5.4837,-5.4781,-5.4997,-5.5018,-5.5037,-5.5104,-5.5131,-5.4807,-5.4807,-5.4806,-5.4805,0,-5.4431,-5.4507,-5.4586,-5.4635,-5.4676,-5.477,-5.4747,-5.4793,-5.4762,-5.4756,-5.4863,-5.4878,-5.4935,-5.4964,-5.4935,-5.5091,-5.5061,-5.5004,-5.491,-5.5075,-5.5137,-5.5162,-5.4819,-5.4816,-5.4814,-5.4812,0,0,-5.4706,-5.4734,-5.4763,-5.4784,-5.4813,-5.487,-5.4959,-5.5015,-5.5054,-5.5089,-5.5161,-5.5252,-5.5198,-5.5227,-5.52,-5.5265,-5.5422,-5.5199,-5.5199,-5.5239,-5.5592,-5.5635,-5.5665,-5.5389,-5.5394,-5.5398,-5.5589,0,-5.4901,-5.5056,-5.5027,-5.5177,-5.5246,-5.5178,-5.5255,-5.528,-5.5276,-5.5332,-5.5327,-5.5391,-5.5316,-5.5333,-5.5394,-5.5391,-5.5493,-5.5376,-5.5454,-5.5457,-5.5448,-5.5698,-5.5743,-5.5923,-5.5613,-5.5618,-5.5621,0,-5.515,-5.5195,-5.5353,-5.5369,-5.5396,-5.5467,-5.5514,-5.5569,-5.5595,-5.5587,-5.5619,-5.5579,-5.5665,-5.5571,-5.5688,-5.5609,-5.5639,-5.5642,-5.5648,-5.5653,-5.5549,-5.5709,-5.598,-5.6007,-5.5659,-5.5656,-5.5653,0,-5.5333,-5.5432,-5.5539,-5.5558,-5.5581,-5.5631,-5.5643,-5.5663,-5.5698,-5.5739,-5.5761,-5.5812,-5.5839,-5.5878,-5.5852,-5.5786,-5.5972,-5.5876,-5.5967,-5.5967,-5.6009,-5.6006,-5.6287,-5.603,-5.603,-5.6029,-5.6028,0,-5.5553,-5.5652,-5.5621,-5.5687,-5.5794,-5.5758,-5.5865,-5.5868,-5.5887,-5.595,-5.5894,-5.5954,-5.5917,-5.5973,-5.5953,-5.6051,-5.6064,-5.6059,-5.6052,-5.6064,-5.6064,-5.6082,-5.6069,-5.6036,-5.6035,-5.6033,-5.6032,0,-5.5776,-5.5759,-5.587,-5.5882,-5.5887,-5.5966,-5.5974,-5.6034,-5.6025,-5.6106,-5.6122,-5.6108,-5.6172,-5.6149,-5.6217,-5.6203,-5.6328,-5.6306,-5.632,-5.6314,-5.6405,-5.6396,-5.6707,-5.6745,-5.6464,-5.6467,-5.6469,0,-5.5917,-5.5991,-5.6011,-5.6049,-5.6065,-5.6128,-5.6163,-5.613,-5.6169,-5.6203,-5.6258,-5.6317,-5.6362,-5.6466,-5.646,-5.6511,-5.6489,-5.6594,-5.6496,-5.6504,-5.6489,-5.6484,-5.649,-5.6613,-5.6617,-5.6619,-5.6621,0,-5.6169,-5.6157,-5.621,-5.6261,-5.6305,-5.6342,-5.6375,-5.641,-5.6378,-5.6424,-5.6488,-5.6523,-5.6592,-5.665,-5.6695,-5.6704,-5.6658,-5.6652,-5.6676,-5.6688,-5.6692,-5.6689,-5.6372,-5.6645,-5.6643,-5.6641,-5.664,-5.6639,-5.6354,-5.6416,-5.6439,-5.65,-5.6521,-5.6552,-5.6608,-5.6606,-5.666,-5.6714,-5.6691,-5.6765,-5.6786,-5.6842,-5.6858,-5.6914,-5.6873,-5.6907,-5.6915,-5.6924,-5.6935,-5.6684,-5.6922,-5.6921,-5.6921,-5.692,-5.6919,0,-5.6602,-5.6613,-5.667,-5.6717,-5.6764,-5.6717,-5.675,-5.6792,-5.6858,-5.6882,-5.6928,-5.7001,-5.7056,-5.7055,-5.7106,-5.7151,-5.713,-5.7165,-5.7161,-5.7164,-5.697,-5.6944,-5.7181,-5.7181,-5.7181,-5.7181,-5.7181,-5.7181,-5.6737,-5.6838,-5.6829,-5.6939,-5.6949,-5.7022,-5.7044,-5.7072,-5.7091,-5.7175,-5.7222,-5.722,-5.7234,-5.7285,-5.7333,-5.7331,-5.7352,-5.7395,-5.7385,-5.7203,-5.7178,-5.7153,-5.7128,-5.74,-5.74,-5.7573,-5.7575,-5.7576]}]]